Time,TemperatureF,DewpointF,PressureIn,WindDirection,WindDirectionDegrees,WindSpeedMPH,WindSpeedGustMPH,Humidity,HourlyPrecipIn,Conditions,Clouds,dailyrainin,SolarRadiationWatts/m^2,SoftwareType,DateUTC
2013-02-14 12:31:00,21.3,12.4,30.18,NE,51,2.0,2.0,68,0.00,,,0.00,25,Wunderground v.1.15,2013-02-14 19:31:00,
2013-02-14 12:36:00,21.0,12.1,30.21,NE,49,1.0,2.0,68,0.00,,,0.00,28,Wunderground v.1.15,2013-02-14 19:36:00,
2013-02-14 12:41:00,20.6,12.0,30.21,NE,38,2.0,2.0,69,0.00,,,0.00,28,Wunderground v.1.15,2013-02-14 19:41:00,
2013-02-14 12:51:00,20.2,11.7,30.20,NE,41,3.0,3.0,69,0.00,,,0.00,26,Wunderground v.1.15,2013-02-14 19:51:00,
2013-02-14 12:56:00,19.9,11.4,30.20,NNE,28,4.0,4.0,69,0.00,,,0.00,28,Wunderground v.1.15,2013-02-14 19:56:00,
2013-02-14 13:01:00,19.7,11.2,30.20,NNE,25,3.0,6.0,69,0.00,,,0.00,35,Wunderground v.1.15,2013-02-14 20:01:00,
2013-02-14 13:07:00,19.4,10.9,30.22,NNE,27,3.0,6.0,69,0.00,,,0.00,35,Wunderground v.1.15,2013-02-14 20:07:00,
2013-02-14 13:16:00,19.1,10.9,30.22,NE,52,4.0,4.0,70,0.00,,,0.00,39,Wunderground v.1.15,2013-02-14 20:16:00,
2013-02-14 13:21:00,18.9,10.7,30.24,NE,49,3.0,3.0,70,0.00,,,0.00,37,Wunderground v.1.15,2013-02-14 20:21:00,
2013-02-14 13:26:00,18.8,10.6,30.24,NE,41,2.0,3.0,70,0.00,,,0.00,39,Wunderground v.1.15,2013-02-14 20:26:00,
2013-02-14 13:36:00,18.6,10.4,30.23,NE,48,1.0,1.0,70,0.00,,,0.00,21,Wunderground v.1.15,2013-02-14 20:36:00,
2013-02-14 13:46:00,18.4,10.6,30.23,NE,40,1.0,1.0,71,0.00,,,0.00,28,Wunderground v.1.15,2013-02-14 20:46:00,
2013-02-14 13:51:00,18.4,10.9,30.23,NE,37,1.0,4.0,72,0.00,,,0.00,25,Wunderground v.1.15,2013-02-14 20:51:00,
2013-02-14 14:01:00,18.4,10.9,30.23,NE,48,2.0,2.0,72,0.00,,,0.00,30,Wunderground v.1.15,2013-02-14 21:01:00,
2013-02-14 14:06:00,18.3,10.5,30.24,ENE,61,2.0,2.0,71,0.00,,,0.00,32,Wunderground v.1.15,2013-02-14 21:06:00,
2013-02-14 14:11:00,18.3,10.5,30.24,NNE,30,2.0,2.0,71,0.00,,,0.00,25,Wunderground v.1.15,2013-02-14 21:11:00,
2013-02-14 14:21:00,18.1,10.3,30.24,NNE,27,2.0,2.0,71,0.00,,,0.00,14,Wunderground v.1.15,2013-02-14 21:21:00,
2013-02-14 14:31:00,17.8,10.0,30.24,NNE,25,2.0,2.0,71,0.00,,,0.00,19,Wunderground v.1.15,2013-02-14 21:31:00,
2013-02-14 14:41:00,17.7,9.9,30.25,NNE,17,1.0,1.0,71,0.00,,,0.00,11,Wunderground v.1.15,2013-02-14 21:41:00,
2013-02-14 14:46:00,17.5,10.0,30.25,NE,42,1.0,1.0,72,0.00,,,0.00,11,Wunderground v.1.15,2013-02-14 21:46:00,
2013-02-14 14:56:00,17.2,9.7,30.27,NE,41,0.0,1.0,72,0.00,,,0.00,7,Wunderground v.1.15,2013-02-14 21:56:00,
2013-02-14 15:06:00,16.9,9.4,30.27,NE,51,1.0,1.0,72,0.00,,,0.00,7,Wunderground v.1.15,2013-02-14 22:06:00,
2013-02-14 15:16:00,16.7,9.5,30.27,NE,49,0.0,2.0,73,0.00,,,0.00,7,Wunderground v.1.15,2013-02-14 22:16:00,
2013-02-14 15:26:00,16.5,9.4,30.28,ENE,73,1.0,1.0,73,0.00,,,0.00,5,Wunderground v.1.15,2013-02-14 22:26:00,
2013-02-14 15:31:00,16.4,9.3,30.28,NE,45,1.0,1.0,73,0.00,,,0.00,9,Wunderground v.1.15,2013-02-14 22:31:00,
2013-02-14 15:41:00,16.1,9.0,30.28,NE,40,0.0,0.0,73,0.00,,,0.00,9,Wunderground v.1.15,2013-02-14 22:41:00,
2013-02-14 15:51:00,16.1,9.3,30.28,NE,41,0.0,0.0,74,0.00,,,0.00,12,Wunderground v.1.15,2013-02-14 22:51:00,
2013-02-14 16:01:00,16.1,9.3,30.28,ENE,61,0.0,2.0,74,0.00,,,0.00,9,Wunderground v.1.15,2013-02-14 23:01:00,
2013-02-14 16:06:00,15.9,9.1,30.28,ENE,61,0.0,2.0,74,0.00,,,0.00,7,Wunderground v.1.15,2013-02-14 23:06:00,
2013-02-14 16:16:00,15.9,9.1,30.28,NNE,31,1.0,2.0,74,0.00,,,0.00,7,Wunderground v.1.15,2013-02-14 23:16:00,
2013-02-14 16:21:00,15.9,9.1,30.31,NNE,32,1.0,1.0,74,0.00,,,0.00,9,Wunderground v.1.15,2013-02-14 23:21:00,
2013-02-14 16:31:00,15.9,9.1,30.31,NE,35,0.0,0.0,74,0.00,,,0.00,5,Wunderground v.1.15,2013-02-14 23:31:00,
2013-02-14 16:41:00,15.7,8.9,30.30,NE,35,0.0,0.0,74,0.00,,,0.00,5,Wunderground v.1.15,2013-02-14 23:41:00,
2013-02-14 16:51:00,15.6,8.8,30.30,NE,35,0.0,0.0,74,0.00,,,0.00,0,Wunderground v.1.15,2013-02-14 23:51:00,
2013-02-14 17:01:00,15.4,8.6,30.30,NE,35,0.0,0.0,74,0.00,,,0.00,0,Wunderground v.1.15,2013-02-15 00:01:00,
2013-02-14 17:07:00,15.4,8.6,30.30,NE,37,0.0,0.0,74,0.00,,,0.00,0,Wunderground v.1.15,2013-02-15 00:07:00,
2013-02-14 17:16:00,15.2,8.4,30.30,NE,37,0.0,1.0,74,0.00,,,0.00,0,Wunderground v.1.15,2013-02-15 00:16:00,
2013-02-14 17:26:00,15.1,8.3,30.32,NE,38,0.0,0.0,74,0.00,,,0.00,0,Wunderground v.1.15,2013-02-15 00:26:00,
2013-02-14 17:36:00,14.8,8.0,30.32,NE,48,0.0,1.0,74,0.00,,,0.00,0,Wunderground v.1.15,2013-02-15 00:36:00,
2013-02-14 17:46:00,14.6,8.1,30.32,NE,49,0.0,0.0,75,0.00,,,0.00,0,Wunderground v.1.15,2013-02-15 00:46:00,
2013-02-14 17:51:00,14.4,7.9,30.32,ENE,58,0.0,0.0,75,0.00,,,0.00,0,Wunderground v.1.15,2013-02-15 00:51:00,
2013-02-14 18:01:00,14.1,7.6,30.32,ESE,107,1.0,1.0,75,0.00,,,0.00,0,Wunderground v.1.15,2013-02-15 01:01:00,
2013-02-14 18:06:00,14.1,7.6,30.32,NE,51,1.0,1.0,75,0.00,,,0.00,0,Wunderground v.1.15,2013-02-15 01:06:00,
2013-02-14 18:16:00,13.8,7.3,30.32,NE,38,0.0,0.0,75,0.00,,,0.00,0,Wunderground v.1.15,2013-02-15 01:16:00,
2013-02-14 18:21:00,13.8,7.3,30.34,NE,40,0.0,0.0,75,0.00,,,0.00,0,Wunderground v.1.15,2013-02-15 01:21:00,
2013-02-14 18:31:00,13.5,7.0,30.34,ENE,64,0.0,0.0,75,0.00,,,0.00,0,Wunderground v.1.15,2013-02-15 01:31:00,
2013-02-14 18:41:00,13.3,7.1,30.34,ENE,64,0.0,0.0,76,0.00,,,0.00,0,Wunderground v.1.15,2013-02-15 01:41:00,
2013-02-14 18:46:00,13.1,7.0,30.34,ENE,64,0.0,0.0,76,0.00,,,0.00,0,Wunderground v.1.15,2013-02-15 01:46:00,
2013-02-14 18:56:00,12.9,6.8,30.35,ENE,64,0.0,0.0,76,0.00,,,0.00,0,Wunderground v.1.15,2013-02-15 01:56:00,
2013-02-14 19:06:00,12.8,6.9,30.35,ENE,64,0.0,0.0,77,0.00,,,0.00,0,Wunderground v.1.15,2013-02-15 02:06:00,
2013-02-14 19:16:00,12.6,6.8,30.35,NNE,13,0.0,0.0,77,0.00,,,0.00,0,Wunderground v.1.15,2013-02-15 02:16:00,
2013-02-14 19:21:00,12.4,6.3,30.37,NNE,13,0.0,0.0,76,0.00,,,0.00,0,Wunderground v.1.15,2013-02-15 02:21:00,
2013-02-14 19:31:00,12.3,6.5,30.37,East,83,0.0,0.0,77,0.00,,,0.00,0,Wunderground v.1.15,2013-02-15 02:31:00,
2013-02-14 19:41:00,12.1,6.3,30.38,East,83,0.0,0.0,77,0.00,,,0.00,0,Wunderground v.1.15,2013-02-15 02:41:00,
2013-02-14 19:51:00,11.9,6.1,30.38,East,82,0.0,0.0,77,0.00,,,0.00,0,Wunderground v.1.15,2013-02-15 02:51:00,
2013-02-14 19:56:00,11.9,6.1,30.38,East,82,0.0,0.0,77,0.00,,,0.00,0,Wunderground v.1.15,2013-02-15 02:56:00,
2013-02-14 20:06:00,11.7,6.2,30.38,East,82,0.0,0.0,78,0.00,,,0.00,0,Wunderground v.1.15,2013-02-15 03:06:00,
2013-02-14 20:16:00,11.7,6.2,30.38,East,82,0.0,1.0,78,0.00,,,0.00,0,Wunderground v.1.15,2013-02-15 03:16:00,
2013-02-14 20:21:00,11.6,6.1,30.34,East,82,0.0,0.0,78,0.00,,,0.00,0,Wunderground v.1.15,2013-02-15 03:21:00,
2013-02-14 20:31:00,11.6,6.1,30.34,East,82,0.0,0.0,78,0.00,,,0.00,0,Wunderground v.1.15,2013-02-15 03:31:00,
2013-02-14 20:41:00,11.6,6.1,30.34,East,82,0.0,0.0,78,0.00,,,0.00,0,Wunderground v.1.15,2013-02-15 03:41:00,
2013-02-14 20:46:00,11.6,6.1,30.34,East,82,0.0,0.0,78,0.00,,,0.00,0,Wunderground v.1.15,2013-02-15 03:46:00,
2013-02-14 20:56:00,11.6,6.1,30.34,East,82,0.0,0.0,78,0.00,,,0.00,0,Wunderground v.1.15,2013-02-15 03:56:00,
2013-02-14 21:01:00,11.6,6.1,30.34,East,82,0.0,0.0,78,0.00,,,0.00,0,Wunderground v.1.15,2013-02-15 04:01:00,
2013-02-14 21:06:00,11.6,6.1,30.33,East,82,0.0,0.0,78,0.00,,,0.00,0,Wunderground v.1.15,2013-02-15 04:06:00,
2013-02-14 21:16:00,11.6,6.1,30.33,East,82,0.0,0.0,78,0.00,,,0.00,0,Wunderground v.1.15,2013-02-15 04:16:00,
2013-02-14 21:26:00,11.6,6.3,30.30,East,82,0.0,0.0,79,0.00,,,0.00,0,Wunderground v.1.15,2013-02-15 04:26:00,
2013-02-14 21:36:00,11.6,6.3,30.30,East,82,0.0,0.0,79,0.00,,,0.00,0,Wunderground v.1.15,2013-02-15 04:36:00,
2013-02-14 21:46:00,11.4,6.2,30.30,East,82,0.0,0.0,79,0.00,,,0.00,0,Wunderground v.1.15,2013-02-15 04:46:00,
2013-02-14 21:56:00,11.4,6.2,30.29,East,82,0.0,0.0,79,0.00,,,0.00,0,Wunderground v.1.15,2013-02-15 04:56:00,
2013-02-14 22:01:00,11.4,6.2,30.29,East,82,0.0,0.0,79,0.00,,,0.00,0,Wunderground v.1.15,2013-02-15 05:01:00,
2013-02-14 22:06:00,11.4,6.2,30.28,East,82,0.0,0.0,79,0.00,,,0.00,0,Wunderground v.1.15,2013-02-15 05:06:00,
2013-02-14 22:16:00,11.4,6.2,30.28,East,82,0.0,0.0,79,0.00,,,0.00,0,Wunderground v.1.15,2013-02-15 05:16:00,
2013-02-14 22:21:00,11.4,6.2,30.29,East,82,0.0,0.0,79,0.00,,,0.00,0,Wunderground v.1.15,2013-02-15 05:21:00,
2013-02-14 22:31:00,11.4,6.2,30.29,East,82,0.0,0.0,79,0.00,,,0.00,0,Wunderground v.1.15,2013-02-15 05:31:00,
2013-02-14 22:36:00,11.4,6.2,30.29,NE,44,0.0,0.0,79,0.00,,,0.00,0,Wunderground v.1.15,2013-02-15 05:36:00,
2013-02-14 22:41:00,11.4,6.2,30.29,NE,47,0.0,0.0,79,0.00,,,0.00,0,Wunderground v.1.15,2013-02-15 05:41:00,
2013-02-14 22:46:00,11.4,6.2,30.29,NE,47,0.0,0.0,79,0.00,,,0.00,0,Wunderground v.1.15,2013-02-15 05:46:00,
2013-02-14 22:56:00,11.4,6.2,30.30,NE,48,0.0,0.0,79,0.00,,,0.00,0,Wunderground v.1.15,2013-02-15 05:56:00,
2013-02-14 23:01:00,11.4,6.4,30.30,ESE,117,0.0,0.0,80,0.00,,,0.00,0,Wunderground v.1.15,2013-02-15 06:01:00,
2013-02-14 23:06:00,11.2,6.0,30.30,ESE,113,0.0,2.0,79,0.00,,,0.00,0,Wunderground v.1.15,2013-02-15 06:06:00,
2013-02-14 23:16:00,11.2,6.0,30.30,East,79,0.0,1.0,79,0.00,,,0.00,0,Wunderground v.1.15,2013-02-15 06:16:00,
2013-02-14 23:21:00,11.2,6.0,30.33,NE,55,0.0,0.0,79,0.00,,,0.00,0,Wunderground v.1.15,2013-02-15 06:21:00,
2013-02-14 23:31:00,11.1,5.9,30.33,ENE,73,0.0,1.0,79,0.00,,,0.00,0,Wunderground v.1.15,2013-02-15 06:31:00,
2013-02-14 23:36:00,10.9,5.7,30.32,East,85,0.0,1.0,79,0.00,,,0.00,0,Wunderground v.1.15,2013-02-15 06:36:00,
2013-02-14 23:46:00,10.7,5.5,30.32,East,85,0.0,0.0,79,0.00,,,0.00,0,Wunderground v.1.15,2013-02-15 06:46:00,
2013-02-14 23:56:00,10.7,5.5,30.32,East,85,0.0,0.0,79,0.00,,,0.00,0,Wunderground v.1.15,2013-02-15 06:56:00,